Theta_e
305 305 305 303 302 299 295 293 290 288 286 285 285 285 284 285 286 288 286 287 285 286 286 285 283 284 283 282 282 282 282 283 281 279 281 281 280 280 281 281 281 280 280
304 304 302 301 298 296 293 289 288 287 285 284 284 283 283 283 283 284 283 285 284 283 284 283 282 281 281 281 281 280 280 281 281 277 278 279 279 280 280 279 279 279 280
302 301 300 299 296 294 292 289 288 286 284 283 283 282 281 282 282 283 282 284 283 283 282 281 280 280 279 280 279 279 278 279 280 280 277 279 279 280 279 279 278 279 279
301 300 298 297 295 292 290 288 287 285 284 283 283 282 281 281 282 281 281 281 281 281 281 281 280 280 279 279 278 278 278 278 278 278 278 278 278 279 278 276 276 278 278
299 298 297 296 293 291 288 286 285 284 283 283 282 281 280 280 280 280 280 280 280 279 280 280 280 280 281 280 279 278 278 278 277 278 278 277 277 277 276 276 275 276 277
297 296 296 292 290 289 286 285 283 282 282 282 281 280 279 279 283 284 281 280 280 279 278 278 279 279 280 282 282 281 280 279 278 278 279 277 277 277 277 276 275 274 272
294 294 292 290 288 287 285 283 282 281 281 280 280 279 279 279 284 284 283 280 279 279 278 277 278 278 279 279 281 281 281 282 282 280 278 278 277 277 276 275 275 275 273
292 291 291 288 287 286 284 283 283 281 280 280 279 279 279 279 285 285 283 280 279 279 278 278 278 277 278 278 279 278 278 279 280 280 279 279 279 278 277 277 275 275 275
290 290 289 288 286 285 283 283 283 282 280 280 280 279 279 279 285 285 282 279 279 278 278 278 278 277 279 281 278 278 278 279 281 283 283 282 281 281 280 278 272 271 270
290 290 290 288 286 285 284 283 283 283 281 280 280 279 279 279 285 285 282 279 278 277 278 278 280 278 281 282 277 277 276 277 276 275 277 279 281 281 282 278 274 270 270
289 289 288 287 286 285 284 284 283 282 280 279 278 279 279 280 284 286 284 280 279 278 277 277 278 281 281 282 281 277 277 278 277 275 275 276 276 276 276 275 275 273 270
287 286 285 285 285 285 283 283 282 281 279 278 278 277 278 279 283 286 285 282 282 279 278 280 279 282 282 282 282 281 281 280 276 275 275 276 275 275 275 275 274 274 273
284 283 283 284 284 284 283 281 281 280 279 277 277 277 277 278 281 286 286 285 283 280 282 283 283 283 284 283 283 282 280 279 277 276 276 276 276 275 276 274 273 273 272
282 282 282 282 282 283 283 282 281 280 279 278 278 278 278 278 278 281 284 285 283 282 284 284 284 283 283 282 281 282 280 279 278 277 277 276 276 274 271 271 270 270 269
282 282 282 283 282 282 282 282 282 282 282 280 280 281 280 278 280 282 283 284 284 283 283 283 282 280 279 279 279 278 279 280 278 278 277 276 274 272 272 272 271 269 266
282 282 282 282 282 281 281 281 284 284 284 285 285 284 283 284 284 283 283 285 286 286 283 281 280 279 278 278 278 277 277 277 278 276 276 275 273 273 271 271 270 267 265
284 283 282 281 281 280 280 279 278 281 283 284 285 285 285 284 284 283 283 284 286 286 283 281 281 281 280 280 279 279 277 276 277 276 275 274 272 271 269 267 267 266 264
284 283 282 282 281 281 280 280 280 279 278 279 283 283 284 284 284 284 284 283 280 283 283 282 281 281 280 279 279 278 277 276 274 273 272 271 270 269 267 266 266 263 262
283 283 283 283 282 282 281 281 281 281 280 280 281 282 282 284 283 284 284 281 279 279 280 281 281 281 280 279 277 276 275 273 271 270 269 268 267 266 264 263 262 261 259
281 282 283 282 282 282 281 280 280 281 280 279 278 280 280 283 282 281 281 282 281 281 281 280 281 279 276 275 275 273 271 269 267 267 266 266 265 263 261 258 257 257 257
278 277 279 278 278 278 278 278 278 278 278 277 277 279 281 279 281 281 280 280 280 281 279 276 275 274 273 272 271 269 268 267 266 264 263 261 259 257 257 258 256 255 255
276 275 276 276 276 276 276 276 276 276 276 275 276 274 278 277 278 279 279 278 277 276 275 274 272 270 270 269 268 267 266 265 263 262 260 258 257 256 255 256 255 255 254
274 273 272 272 272 270 271 272 272 272 272 272 272 270 269 275 275 275 273 270 269 268 268 269 268 266 266 266 266 266 264 262 262 261 259 258 256 256 254 254 253 252 252
272 272 271 269 269 270 270 269 266 265 268 268 268 268 268 270 270 268 267 266 265 264 264 264 264 262 261 263 263 263 260 258 257 258 257 257 255 254 253 251 252 251 251
268 268 267 267 267 266 266 266 266 266 265 265 265 265 264 264 264 264 263 262 261 260 259 259 260 261 259 259 258 257 257 259 254 255 252 252 251 251 250 249 250 250 249
265 265 265 265 265 265 265 264 264 264 264 263 263 263 263 263 263 263 261 260 259 259 259 258 257 256 256 256 255 256 259 260 256 254 252 252 251 250 249 248 248 248 247
Wind_Speed
12 12 12 11 12 11 10 9 10 9 9 9 11 11 10 10 9 10 9 11 12 11 9 10 9 9 6 5 5 4 4 2 6 2 3 4 3 2 1 2 2 4 5
11 12 11 11 11 11 11 10 10 11 10 11 10 10 10 10 8 8 10 11 12 14 13 13 12 8 8 7 5 5 5 3 5 6 3 3 4 1 2 3 3 2 4
11 12 12 13 12 11 11 11 11 12 11 11 12 12 12 11 10 8 9 10 9 10 13 13 14 12 9 7 6 6 5 4 5 3 4 2 2 3 1 2 2 4 3
12 13 13 13 12 11 11 11 12 12 13 13 13 12 12 12 12 10 9 10 8 7 5 8 8 7 10 10 7 7 6 7 5 4 1 2 2 2 2 3 2 3 5
13 13 13 10 10 10 11 11 10 10 10 11 11 10 11 12 10 12 12 11 12 10 7 6 7 8 11 10 7 8 8 5 5 4 3 2 3 2 1 1 3 5 6
13 13 10 10 10 9 9 9 9 10 11 11 11 11 12 8 19 20 13 10 11 11 11 9 8 9 11 14 13 14 11 9 7 5 4 3 4 3 2 1 3 4 3
12 11 10 11 11 10 10 11 12 12 11 12 13 13 14 12 25 23 20 10 10 10 10 9 9 6 7 7 11 12 12 13 8 6 4 5 3 4 3 2 4 4 5
12 11 11 11 11 11 12 12 11 11 12 12 12 12 12 10 25 25 21 11 9 9 10 11 10 11 9 11 9 8 7 7 9 6 5 5 4 3 3 3 3 4 6
12 12 12 13 13 12 13 13 12 11 10 10 11 12 13 12 27 26 20 12 10 10 10 10 9 10 15 18 10 9 8 8 10 15 13 10 9 10 9 4 2 3 5
12 12 12 11 12 13 12 11 10 11 10 8 10 11 13 13 27 27 17 9 10 8 8 9 14 10 16 21 10 9 9 8 8 4 7 11 12 10 13 5 2 5 4
6 7 9 10 11 11 10 9 10 9 9 9 9 9 10 12 18 26 25 10 9 8 8 8 7 18 18 20 19 10 9 7 11 5 5 4 4 4 3 4 6 5 4
5 7 8 9 8 9 12 9 11 11 11 10 10 8 6 7 16 26 27 17 17 11 11 8 8 19 21 20 16 18 16 10 4 4 5 6 6 5 6 6 6 6 6
6 6 7 7 7 8 9 9 8 8 8 9 9 8 8 8 8 22 26 23 20 9 7 11 17 20 23 17 21 20 14 7 7 7 8 7 6 5 5 3 3 5 7
7 8 8 9 9 9 7 8 8 9 8 8 9 9 8 9 9 9 11 14 18 15 11 8 11 12 15 13 9 13 9 8 8 8 7 5 4 4 3 3 4 4 5
6 7 7 6 8 8 7 7 7 8 9 9 8 9 10 11 12 17 14 10 10 12 9 6 6 6 7 6 6 8 6 7 8 7 6 5 4 4 5 4 4 3 4
7 7 6 6 6 6 6 5 9 8 13 13 14 11 8 11 18 25 25 24 24 23 10 9 9 8 8 7 8 8 8 9 7 6 6 5 5 5 4 3 3 3 4
4 7 6 7 7 8 8 7 7 6 9 13 14 15 15 11 16 22 24 25 25 22 11 10 11 9 8 8 8 8 7 8 8 6 6 6 5 4 4 4 4 3 4
3 6 5 5 5 5 6 6 6 8 7 6 13 11 14 13 16 17 20 19 11 17 11 10 10 9 7 7 7 6 6 5 7 6 5 4 5 5 4 3 3 2 2
4 4 3 4 5 6 6 5 5 6 6 6 5 9 9 15 14 15 18 9 9 10 11 12 8 7 7 7 5 5 5 6 6 5 5 5 5 4 4 3 3 3 2
3 1 5 2 3 5 6 6 5 5 4 4 5 4 4 7 8 8 7 6 6 7 7 8 6 5 6 7 6 6 5 5 5 5 5 5 4 4 3 3 3 3 3
4 4 3 3 3 3 3 5 2 3 3 3 2 3 9 5 6 6 6 6 5 5 4 5 5 6 5 5 6 6 6 6 6 5 5 4 3 3 3 3 3 3 3
4 4 4 3 3 4 4 4 4 3 2 4 4 2 6 3 2 3 3 3 3 2 2 3 4 5 5 6 7 6 6 6 6 5 5 4 4 3 3 3 3 3 3
4 5 4 3 3 4 4 4 4 3 3 2 2 3 2 3 4 2 3 4 3 3 2 3 5 5 4 4 5 6 7 6 6 6 7 6 5 4 4 3 3 3 3
4 4 4 4 3 4 4 4 4 4 4 4 2 2 2 2 2 3 4 3 3 3 3 2 4 6 6 5 4 3 3 3 4 5 7 6 5 5 3 3 3 4 3
5 5 5 4 4 4 4 4 4 4 4 3 3 3 3 2 3 3 3 2 2 2 3 3 2 4 5 6 5 5 5 7 5 5 4 5 5 6 5 3 4 3 4
6 6 5 4 5 4 4 4 4 4 4 3 3 3 3 3 3 3 3 3 2 2 3 2 3 4 5 4 5 6 7 8 7 7 5 5 5 4 4 4 5 3 4
Wind_Direction
199 199 196 192 192 183 181 169 162 155 157 160 161 155 154 166 165 166 156 157 159 149 153 145 134 133 128 129 120 119 112 110 113 85 104 136 203 234 271 326 322 330 320
202 200 195 197 191 186 183 166 158 163 162 159 156 155 153 156 150 159 156 164 168 156 157 145 145 140 139 140 134 125 115 71 105 141 141 159 207 148 258 301 296 287 300
201 200 201 201 193 190 185 169 167 163 164 162 161 165 162 164 160 166 160 161 170 163 157 158 152 150 143 141 131 123 111 109 83 124 135 159 193 204 272 279 300 304 297
203 203 207 201 193 189 181 171 170 169 166 170 174 169 165 163 164 156 159 148 148 144 150 137 143 145 142 145 141 138 144 111 121 129 134 154 188 153 223 273 319 312 312
205 208 211 203 193 185 175 168 164 172 176 174 166 166 165 168 170 162 158 157 144 137 140 133 134 136 147 144 144 158 137 130 143 161 177 171 189 185 240 332 292 310 305
205 209 201 186 185 179 172 167 160 168 167 164 170 167 167 167 170 164 150 153 153 154 149 146 143 138 157 157 175 156 161 157 162 170 192 186 197 190 183 246 294 307 330
200 199 191 181 180 177 167 167 170 173 167 176 174 172 177 166 169 169 163 154 156 162 150 152 141 152 156 158 177 168 181 185 180 183 190 190 201 191 187 238 256 270 277
196 195 186 177 176 176 175 181 178 175 180 181 181 178 171 176 175 173 164 154 150 154 160 164 161 162 167 179 172 179 182 197 202 202 211 209 201 185 189 227 252 287 277
200 198 188 181 181 180 187 182 174 172 180 185 179 174 174 174 178 176 165 155 155 161 166 168 165 155 198 186 175 182 193 206 215 225 229 230 231 230 227 214 225 271 286
201 199 191 178 180 181 183 180 174 172 176 174 179 181 181 173 178 181 160 162 154 166 171 173 170 176 195 197 182 182 199 205 200 206 230 240 243 246 244 204 214 245 264
185 179 175 171 175 173 168 176 166 164 157 167 173 178 181 180 179 181 177 177 164 175 177 178 181 193 204 206 197 191 200 185 212 191 201 216 225 224 206 222 228 236 246
153 157 160 155 162 159 159 169 164 162 158 164 167 163 167 170 189 189 188 185 184 181 187 187 188 191 207 210 210 211 211 202 182 192 212 215 219 213 216 221 224 234 245
136 136 141 144 151 152 157 164 162 166 163 166 172 180 178 183 199 197 195 190 197 199 194 189 190 192 209 209 222 221 220 209 207 211 224 222 210 205 208 190 221 250 261
143 152 147 150 149 155 159 169 166 172 171 175 181 184 185 184 191 199 197 196 194 204 204 194 196 193 200 196 210 227 218 211 217 228 228 226 208 177 174 198 222 221 252
145 147 146 152 158 160 170 177 184 187 182 181 187 189 185 194 196 194 192 192 189 195 182 181 186 180 186 187 193 203 210 218 219 217 206 211 184 187 208 198 208 210 245
151 153 159 153 162 160 156 162 199 186 196 203 199 195 202 198 191 194 198 201 199 199 194 198 206 199 199 191 201 199 199 203 209 199 202 201 208 212 204 187 188 205 245
178 160 159 164 165 164 163 162 163 187 196 215 214 210 203 195 193 196 200 206 205 204 208 209 218 213 205 204 206 206 196 198 195 191 195 195 184 192 173 201 214 222 251
176 175 170 166 165 161 163 163 158 162 172 190 216 204 209 201 203 200 201 202 208 218 217 221 219 214 198 204 205 200 185 169 182 183 177 170 171 186 186 199 210 225 255
157 178 179 160 154 157 154 155 168 159 169 170 157 201 200 209 202 207 200 200 205 211 220 225 219 197 193 195 182 169 178 170 169 171 172 170 171 171 187 181 186 202 212
116 156 193 157 156 160 148 144 162 153 153 144 152 158 141 182 194 189 199 207 203 211 212 213 208 161 156 167 169 162 156 156 161 168 169 168 166 168 174 161 167 189 202
128 146 167 133 157 153 129 119 129 134 156 153 162 193 195 196 200 203 180 192 214 216 168 146 152 151 150 153 151 160 169 170 171 168 166 153 146 157 161 171 166 172 191
131 144 159 152 152 160 154 144 164 167 173 175 175 113 209 192 257 222 198 160 146 80 86 136 147 150 157 159 159 163 172 172 163 162 156 144 152 154 154 160 168 186 194
131 128 124 121 125 125 109 102 117 127 133 119 101 132 154 209 172 160 115 102 108 116 113 139 138 136 128 142 156 167 172 175 170 161 161 162 162 163 159 163 166 178 188
88 102 104 105 106 110 107 116 105 82 107 109 121 106 99 109 116 93 103 113 129 135 143 116 131 143 142 145 144 143 114 115 118 151 152 157 157 162 155 152 167 178 176
70 78 82 91 88 94 106 96 94 94 97 105 110 108 110 100 93 104 99 101 98 108 98 93 82 131 147 147 143 139 145 146 128 133 125 131 149 156 157 159 169 176 176
68 71 72 72 71 66 74 83 82 81 81 79 73 70 73 70 82 106 117 128 130 112 118 113 125 125 138 152 164 162 173 174 164 166 146 148 153 155 151 161 187 177 185